CW9790 Weather Reports


Display with metric or nautical units.
time (UTC)temp
F
wind
direction
speed
MPH
gust
MPH
rain 1hr
in
rain 24hr
in
rain mn
in
humidity
%
barometer
mb
20240226151017 66 225 1.0 4.0 0.00 0.00 0.00 77 1013.8
20240226150017 65 225 1.0 4.0 0.00 0.00 0.00 78 1013.7
20240226145018 64 0.0 2.0 0.00 0.00 0.00 81 1013.4
20240226144057 63 270 1.0 2.0 0.00 0.00 0.00 81 1013.4
20240226143056 61 270 1.0 3.0 0.00 0.00 0.00 83 1013.3
20240226142019 60 0.0 2.0 0.00 0.00 0.00 84 1013.1
20240226141016 60 0.0 0.0 0.00 0.00 0.00 85 1013.0
20240226140018 59 0.0 0.0 0.00 0.00 0.00 83 1012.9
20240226135019 59 0.0 0.0 0.00 0.00 0.00 83 1013.0
20240226134016 58 0.0 0.0 0.00 0.00 0.00 83 1013.0
20240226133016 58 0.0 0.0 0.00 0.00 0.00 83 1013.0
20240226132016 58 0.0 0.0 0.00 0.00 0.00 83 1013.0
20240226131036 58 0.0 1.0 0.00 0.00 0.00 83 1013.1
20240226130016 58 0.0 1.0 0.00 0.00 0.00 83 1013.2
20240226125017 58 0.0 0.0 0.00 0.00 0.00 83 1013.2
20240226124018 58 0.0 0.0 0.00 0.00 0.00 83 1013.2
20240226123017 57 0.0 0.0 0.00 0.00 0.00 83 1013.3
20240226122016 57 0.0 0.0 0.00 0.00 0.00 83 1013.3
20240226121016 57 0.0 0.0 0.00 0.00 0.00 83 1013.4
20240226120018 57 0.0 0.0 0.00 0.00 0.00 82 1013.4
20240226115016 58 0.0 0.0 0.00 0.00 0.00 82 1013.5
20240226114038 58 0.0 0.0 0.00 0.00 0.00 82 1013.6
20240226113016 58 0.0 0.0 0.00 0.00 0.00 82 1013.6
20240226112016 58 0.0 0.0 0.00 0.00 0.00 81 1013.6
20240226111015 59 0.0 0.0 0.00 0.00 0.00 80 1013.7
20240226110018 59 0.0 0.0 0.00 0.00 0.00 81 1013.7
20240226105020 59 0.0 0.0 0.00 0.00 0.00 81 1013.7
20240226104018 59 0.0 0.0 0.00 0.00 0.00 81 1013.7
20240226103020 59 0.0 0.0 0.00 0.00 0.00 81 1013.7
20240226102018 59 0.0 0.0 0.00 0.00 0.00 81 1013.7
20240226101040 59 0.0 0.0 0.00 0.00 0.00 81 1013.8
20240226100018 59 0.0 0.0 0.00 0.00 0.00 79 1013.8
20240226095020 59 0.0 0.0 0.00 0.00 0.00 78 1013.8
20240226094017 59 0.0 0.0 0.00 0.00 0.00 78 1013.9
20240226093020 60 0.0 0.0 0.00 0.00 0.00 77 1014.0
20240226092017 60 0.0 0.0 0.00 0.00 0.00 76 1014.2
20240226091040 60 0.0 0.0 0.00 0.00 0.00 75 1013.9
20240226090018 60 0.0 0.0 0.00 0.00 0.00 74 1014.3
20240226085017 60 0.0 0.0 0.00 0.00 0.00 73 1014.3
20240226084018 60 0.0 0.0 0.00 0.00 0.00 72 1014.4
20240226083017 60 0.0 0.0 0.00 0.00 0.00 71 1014.4
20240226082017 61 0.0 0.0 0.00 0.00 0.00 70 1014.4
20240226081017 61 0.0 0.0 0.00 0.00 0.00 69 1014.6
20240226080020 61 0.0 0.0 0.00 0.00 0.00 67 1014.6
20240226075017 62 0.0 0.0 0.00 0.00 0.00 64 1014.7
20240226074018 62 0.0 0.0 0.00 0.00 0.00 63 1014.7
20240226073018 62 0.0 0.0 0.00 0.00 0.00 63 1014.8
20240226072017 63 0.0 0.0 0.00 0.00 0.00 62 1014.7
20240226071037 63 0.0 0.0 0.00 0.00 0.00 61 1014.9
20240226070037 63 0.0 0.0 0.00 0.00 0.00 60 1014.7
20240226065017 63 0.0 0.0 0.00 0.00 0.00 60 1014.7
20240226064017 64 0.0 0.0 0.00 0.00 0.00 59 1014.8
20240226063017 64 0.0 0.0 0.00 0.00 0.00 59 1014.7
20240226062018 64 0.0 0.0 0.00 0.00 0.00 58 1014.8
20240226061017 64 0.0 0.0 0.00 0.00 0.00 57 1014.7
20240226060020 65 0.0 0.0 0.00 0.00 0.00 56 1014.6
20240226055016 65 0.0 0.0 0.00 0.00 0.00 56 1014.6
20240226054018 65 0.0 0.0 0.00 0.00 0.00 55 1014.6
20240226053016 66 0.0 0.0 0.00 0.00 0.00 54 1014.5
20240226052016 66 0.0 0.0 0.00 0.00 0.00 54 1014.4
20240226051036 66 0.0 0.0 0.00 0.00 0.00 53 1014.5
20240226050019 66 0.0 0.0 0.00 0.00 0.00 53 1014.3
20240226045016 66 0.0 0.0 0.00 0.00 0.00 53 1014.3
20240226044016 66 0.0 0.0 0.00 0.00 0.00 53 1014.2
20240226043017 66 0.0 0.0 0.00 0.00 0.00 53 1014.1
20240226042018 67 0.0 0.0 0.00 0.00 0.00 53 1014.0
20240226041016 67 0.0 0.0 0.00 0.00 0.00 52 1014.0
20240226040016 67 0.0 0.0 0.00 0.00 0.00 51 1014.0
20240226035018 68 0.0 0.0 0.00 0.00 0.00 50 1013.9
20240226034016 68 0.0 0.0 0.00 0.00 0.00 50 1013.8
20240226033018 69 0.0 0.0 0.00 0.00 0.00 49 1013.8
20240226032018 69 0.0 2.0 0.00 0.00 0.00 49 1013.7
20240226031018 69 0.0 1.0 0.00 0.00 0.00 48 1013.5
20240226030018 70 0.0 1.0 0.00 0.00 0.00 48 1013.5
20240226025018 70 0.0 1.0 0.00 0.00 0.00 48 1013.5
20240226024017 71 0.0 1.0 0.00 0.00 0.00 47 1013.2
20240226023017 71 0.0 1.0 0.00 0.00 0.00 47 1013.2
20240226022019 71 0.0 0.0 0.00 0.00 0.00 46 1013.0
20240226021037 72 0.0 0.0 0.00 0.00 0.00 45 1012.9
20240226020019 72 0.0 2.0 0.00 0.00 0.00 44 1012.8
20240226015018 73 0.0 2.0 0.00 0.00 0.00 44 1012.8
20240226014017 74 0.0 0.0 0.00 0.00 0.00 42 1012.7
20240226012019 76 0.0 0.0 0.00 0.00 0.00 40 1012.5
20240226011017 77 0.0 0.0 0.00 0.00 0.00 38 1012.5
20240226010018 78 0.0 0.0 0.00 0.00 0.00 37 1012.6
20240226005038 79 0.0 2.0 0.00 0.00 0.00 35 1012.5
20240226004018 80 0.0 1.0 0.00 0.00 0.00 34 1012.5
20240226003017 82 0.0 2.0 0.00 0.00 0.00 32 1012.5
20240226002016 83 0.0 2.0 0.00 0.00 0.00 26 1012.4
20240226001018 84 270 1.0 3.0 0.00 0.00 0.00 20 1012.5
20240226000017 85 270 1.0 3.0 0.00 0.00 0.00 19 1012.4
20240225235018 85 270 2.0 7.0 0.00 0.00 0.00 18 1012.4
20240225234017 85 225 2.0 10.0 0.00 0.00 0.00 18 1012.3
20240225233036 86 270 3.0 11.0 0.00 0.00 0.00 17 1012.2
20240225232016 86 248 3.0 7.0 0.00 0.00 0.00 19 1012.2
20240225231019 87 270 3.0 11.0 0.00 0.00 0.00 18 1012.1
20240225230016 87 315 3.0 9.0 0.00 0.00 0.00 18 1012.1
20240225225016 87 225 3.0 7.0 0.00 0.00 0.00 18 1012.1
20240225224017 87 270 3.0 13.0 0.00 0.00 0.00 20 1012.2
20240225223036 88 293 3.0 9.0 0.00 0.00 0.00 19 1012.3
20240225222016 87 315 4.0 9.0 0.00 0.00 0.00 21 1012.3
20240225221017 87 270 5.0 11.0 0.00 0.00 0.00 19 1012.4
20240225220017 88 270 4.0 10.0 0.00 0.00 0.00 18 1012.6
20240225215037 88 270 5.0 11.0 0.00 0.00 0.00 18 1012.6
20240225214039 88 270 4.0 11.0 0.00 0.00 0.00 19 1012.7
20240225213016 87 248 5.0 12.0 0.00 0.00 0.00 21 1012.8
20240225212016 88 225 4.0 13.0 0.00 0.00 0.00 20 1012.9
20240225211038 87 270 5.0 11.0 0.00 0.00 0.00 21 1012.8
20240225210017 88 293 5.0 10.0 0.00 0.00 0.00 19 1013.0
20240225205036 87 248 5.0 13.0 0.00 0.00 0.00 20 1012.8
20240225204019 87 248 6.0 15.0 0.00 0.00 0.00 19 1013.0
20240225203017 88 293 5.0 14.0 0.00 0.00 0.00 19 1013.1
20240225202017 87 293 5.0 11.0 0.00 0.00 0.00 21 1013.1
20240225201016 87 270 5.0 14.0 0.00 0.00 0.00 20 1013.3
20240225200038 86 225 6.0 19.0 0.00 0.00 0.00 23 1013.5
20240225195017 88 248 3.0 11.0 0.00 0.00 0.00 20 1013.8
20240225194016 87 270 4.0 11.0 0.00 0.00 0.00 21 1013.9
20240225193016 86 248 4.0 14.0 0.00 0.00 0.00 21 1014.1
20240225192020 85 225 5.0 15.0 0.00 0.00 0.00 27 1014.2
20240225191018 85 248 4.0 10.0 0.00 0.00 0.00 33 1014.6
20240225190018 84 225 4.0 11.0 0.00 0.00 0.00 31 1014.5
20240225185018 83 225 4.0 10.0 0.00 0.00 0.00 37 1014.8
20240225184020 82 225 4.0 12.0 0.00 0.00 0.00 39 1015.0
20240225183018 81 180 4.0 12.0 0.00 0.00 0.00 38 1015.2
20240225182018 80 225 5.0 11.0 0.00 0.00 0.00 40 1015.3
20240225181036 80 225 4.0 10.0 0.00 0.00 0.00 42 1015.6
20240225180041 78 225 4.0 11.0 0.00 0.00 0.00 43 1015.7
20240225175017 78 225 4.0 11.0 0.00 0.00 0.00 47 1015.8
20240225174020 77 225 4.0 10.0 0.00 0.00 0.00 49 1016.0
20240225173017 77 180 3.0 10.0 0.00 0.00 0.00 50 1016.0
20240225172018 76 180 3.0 9.0 0.00 0.00 0.00 51 1016.0
20240225171017 74 203 5.0 10.0 0.00 0.00 0.00 54 1016.2
20240225170019 73 225 4.0 9.0 0.00 0.00 0.00 55 1016.3
20240225165017 73 203 4.0 11.0 0.00 0.00 0.00 56 1016.3
20240225164038 72 135 4.0 10.0 0.00 0.00 0.00 57 1016.2
20240225163017 71 158 3.0 11.0 0.00 0.00 0.00 61 1016.2
20240225162040 70 225 3.0 10.0 0.00 0.00 0.00 62 1016.3
20240225161017 69 203 3.0 10.0 0.00 0.00 0.00 65 1016.4
20240225160017 68 225 4.0 10.0 0.00 0.00 0.00 68 1016.3
20240225155020 67 203 4.0 10.0 0.00 0.00 0.00 69 1016.4
20240225154017 65 225 4.0 11.0 0.00 0.00 0.00 75 1016.2
20240225153018 64 180 4.0 11.0 0.00 0.00 0.00 77 1016.1
20240225152017 63 180 3.0 10.0 0.00 0.00 0.00 80 1016.0